Location: ??????
(55.8274°N, 37.9338°E)
Time: 04:16:34
(UTC+00:00)

Meteor 1-28 Rocket - Pass Details

Date: 14 April 2024
Orbit: 475 x 491 km, 97.5° (Epoch: 23 May)

Event Time Altitude Azimuth Distance (km) Brightness Sun altitude
Exits shadow 00:47:21 21° 242° (WSW) 1,166 4.4 -12.8°
Maximum altitude 00:48:21 24° 267° (W) 1,084 4.4 -12.7°
Drops below altitude 10° 00:51:22 10° 322° (NW) 1,712 5.9 -12.4°
Sets 00:53:46 0° 337° (NNW) 2,601 7.0 -12.1°
